Вернуться в каталог

ONEWEB-0439

АктивенСвязьPO
NORAD 51635·PAYLOAD·🇬🇧 United Kingdom

Запущен Feb 10, 2022 с Guiana Space Centre

Loading…

Ближайшие Пролёты (ближайшие 24 часа)

TLE

СвежийSource: CelesTrak SupGP

Эпоха: Sep 14, 2026, 14:54 UTC

1 51635C 22012P   26257.62134676 -.00000516  00000+0 -14792-2 0  2579
2 51635  87.8908  18.4622 0001843 104.6798   7.2556 13.10371119    19

Отслеживайте ONEWEB-0439 в реальном времени с AllMySat

Download on the App Store